| time (UTC) | temp F | wind direction | speed MPH | gust MPH | rain 1hr in | rain 24hr in | rain mn in | humidity % | barometer mb |
| 20260904234253 | 82 | 228 | 3.0 | 14.0 | 0.01 | 0.01 | 0.01 | 82 | 1014.3 |
| 20260904233749 | 83 | 224 | 2.0 | 5.0 | 0.01 | 0.01 | 0.01 | 81 | 1013.6 |
| 20260904233243 | 84 | 207 | 2.0 | 4.0 | 0.01 | 0.01 | 0.01 | 79 | 1012.7 |
| 20260904232737 | 84 | 76 | 2.0 | 4.0 | 0.00 | 0.00 | 0.00 | 76 | 1011.5 |
| 20260904232230 | 85 | 24 | 2.0 | 5.0 | 0.00 | 0.00 | 0.00 | 75 | 1012.0 |
| 20260904231724 | 86 | 22 | 2.0 | 7.0 | 0.00 | 0.00 | 0.00 | 75 | 1012.6 |
| 20260904231217 | 86 | 203 | 2.0 | 6.0 | 0.00 | 0.00 | 0.00 | 77 | 1012.9 |
| 20260904230913 | 87 | 163 | 1.0 | 3.0 | 0.00 | 0.00 | 0.00 | 78 | 1012.6 |
| 20260904230759 | 87 | 197 | 1.0 | 5.0 | 0.00 | 0.00 | 0.00 | 77 | 1012.8 |
| 20260904225700 | 87 | 162 | 2.0 | 7.0 | 0.00 | 0.00 | 0.00 | 79 | 1012.4 |
| 20260904225154 | 87 | 54 | 3.0 | 7.0 | 0.00 | 0.00 | 0.00 | 79 | 1012.2 |
| 20260904225132 | 88 | 86 | 2.0 | 6.0 | 0.00 | 0.00 | 0.00 | 78 | 1012.0 |
| 20260904224141 | 88 | 103 | 2.0 | 6.0 | 0.00 | 0.00 | 0.00 | 79 | 1012.0 |
| 20260904223858 | 88 | 44 | 3.0 | 5.0 | 0.00 | 0.00 | 0.00 | 79 | 1011.8 |
| 20260904223132 | 89 | 102 | 4.0 | 6.0 | 0.00 | 0.00 | 0.00 | 78 | 1011.8 |
| 20260904222624 | 89 | 47 | 4.0 | 6.0 | 0.00 | 0.00 | 0.00 | 78 | 1011.9 |
| 20260904222119 | 90 | 52 | 4.0 | 11.0 | 0.00 | 0.00 | 0.00 | 77 | 1011.9 |
| 20260904221834 | 90 | 74 | 5.0 | 12.0 | 0.00 | 0.00 | 0.00 | 75 | 1011.8 |
| 20260904221108 | 91 | 60 | 6.0 | 12.0 | 0.00 | 0.00 | 0.00 | 74 | 1011.9 |
| 20260904220833 | 92 | 51 | 6.0 | 11.0 | 0.00 | 0.00 | 0.00 | 72 | 1011.9 |
| 20260904220114 | 93 | 45 | 5.0 | 10.0 | 0.00 | 0.00 | 0.00 | 69 | 1011.9 |
| 20260904215603 | 94 | 41 | 3.0 | 8.0 | 0.00 | 0.00 | 0.00 | 61 | 1011.9 |
| 20260904215102 | 94 | 26 | 3.0 | 6.0 | 0.00 | 0.00 | 0.00 | 63 | 1011.6 |
| 20260904214602 | 94 | 58 | 3.0 | 5.0 | 0.00 | 0.00 | 0.00 | 61 | 1011.8 |
| 20260904214324 | 95 | 20 | 3.0 | 6.0 | 0.00 | 0.00 | 0.00 | 60 | 1011.9 |
| 20260904213602 | 95 | 45 | 2.0 | 6.0 | 0.00 | 0.00 | 0.00 | 61 | 1012.1 |
| 20260904213100 | 96 | 46 | 3.0 | 5.0 | 0.00 | 0.00 | 0.00 | 62 | 1012.1 |
| 20260904213048 | 96 | 47 | 2.0 | 5.0 | 0.00 | 0.00 | 0.00 | 57 | 1012.1 |
| 20260904212059 | 97 | 22 | 2.0 | 5.0 | 0.00 | 0.00 | 0.00 | 56 | 1012.1 |
| 20260904211559 | 97 | 12 | 3.0 | 7.0 | 0.00 | 0.00 | 0.00 | 57 | 1012.0 |
| 20260904211056 | 98 | 306 | 3.0 | 7.0 | 0.00 | 0.00 | 0.00 | 55 | 1011.9 |
| 20260904210825 | 98 | 302 | 2.0 | 5.0 | 0.00 | 0.00 | 0.00 | 54 | 1011.5 |
| 20260904210703 | 98 | 286 | 2.0 | 6.0 | 0.00 | 0.00 | 0.00 | 53 | 1011.4 |
| 20260904205558 | 98 | 306 | 2.0 | 6.0 | 0.00 | 0.00 | 0.00 | 55 | 1011.2 |
| 20260904205057 | 98 | 290 | 2.0 | 4.0 | 0.00 | 0.00 | 0.00 | 54 | 1011.1 |
| 20260904204556 | 98 | 330 | 1.0 | 3.0 | 0.00 | 0.00 | 0.00 | 55 | 1011.1 |
| 20260904204051 | 98 | 285 | 2.0 | 5.0 | 0.00 | 0.00 | 0.00 | 56 | 1011.1 |
| 20260904203550 | 98 | 284 | 3.0 | 7.0 | 0.00 | 0.00 | 0.00 | 56 | 1011.0 |
| 20260904203050 | 98 | 287 | 4.0 | 11.0 | 0.00 | 0.00 | 0.00 | 55 | 1011.3 |
| 20260904202550 | 98 | 238 | 5.0 | 11.0 | 0.00 | 0.00 | 0.00 | 55 | 1011.2 |
| 20260904202048 | 98 | 269 | 5.0 | 11.0 | 0.00 | 0.00 | 0.00 | 54 | 1011.2 |
| 20260904201548 | 98 | 271 | 4.0 | 11.0 | 0.00 | 0.00 | 0.00 | 53 | 1011.4 |
| 20260904201242 | 98 | 251 | 3.0 | 7.0 | 0.00 | 0.00 | 0.00 | 53 | 1011.5 |
| 20260904201132 | 98 | 278 | 3.0 | 7.0 | 0.00 | 0.00 | 0.00 | 53 | 1011.4 |
| 20260904200326 | 98 | 299 | 3.0 | 8.0 | 0.00 | 0.00 | 0.00 | 56 | 1011.5 |
| 20260904195545 | 98 | 313 | 4.0 | 9.0 | 0.00 | 0.00 | 0.00 | 54 | 1011.6 |
| 20260904195044 | 98 | 269 | 2.0 | 9.0 | 0.00 | 0.00 | 0.00 | 56 | 1011.6 |
| 20260904194545 | 98 | 303 | 2.0 | 7.0 | 0.00 | 0.00 | 0.00 | 60 | 1011.7 |
| 20260904194046 | 98 | 280 | 3.0 | 8.0 | 0.00 | 0.00 | 0.00 | 60 | 1011.8 |
| 20260904193540 | 98 | 297 | 3.0 | 8.0 | 0.00 | 0.00 | 0.00 | 56 | 1011.8 |
| 20260904193041 | 98 | 229 | 2.0 | 6.0 | 0.00 | 0.00 | 0.00 | 54 | 1011.9 |
| 20260904192541 | 98 | 216 | 2.0 | 9.0 | 0.00 | 0.00 | 0.00 | 57 | 1012.1 |
| 20260904192040 | 98 | 301 | 4.0 | 10.0 | 0.00 | 0.00 | 0.00 | 57 | 1012.1 |
| 20260904191541 | 98 | 284 | 4.0 | 10.0 | 0.00 | 0.00 | 0.00 | 54 | 1012.2 |
| 20260904191041 | 98 | 247 | 3.0 | 9.0 | 0.00 | 0.00 | 0.00 | 61 | 1012.5 |
| 20260904190541 | 97 | 281 | 4.0 | 9.0 | 0.00 | 0.00 | 0.00 | 54 | 1012.6 |
| 20260904190040 | 97 | 191 | 3.0 | 8.0 | 0.00 | 0.00 | 0.00 | 58 | 1012.6 |
| 20260904185540 | 98 | 340 | 3.0 | 9.0 | 0.00 | 0.00 | 0.00 | 54 | 1012.7 |
| 20260904185040 | 98 | 312 | 2.0 | 9.0 | 0.00 | 0.00 | 0.00 | 55 | 1012.8 |
| 20260904184539 | 98 | 266 | 2.0 | 8.0 | 0.00 | 0.00 | 0.00 | 56 | 1012.8 |
| 20260904184039 | 98 | 271 | 3.0 | 8.0 | 0.00 | 0.00 | 0.00 | 54 | 1012.9 |
| 20260904184013 | 97 | 308 | 3.0 | 9.0 | 0.00 | 0.00 | 0.00 | 57 | 1013.2 |
| 20260904183630 | 98 | 289 | 3.0 | 8.0 | 0.00 | 0.00 | 0.00 | 56 | 1013.0 |
| 20260904182757 | 97 | 309 | 3.0 | 9.0 | 0.00 | 0.00 | 0.00 | 60 | 1013.2 |
| 20260904182306 | 98 | 302 | 3.0 | 9.0 | 0.00 | 0.00 | 0.00 | 58 | 1013.2 |
| 20260904181801 | 98 | 255 | 4.0 | 10.0 | 0.00 | 0.00 | 0.00 | 58 | 1013.2 |
| 20260904181039 | 98 | 288 | 3.0 | 10.0 | 0.00 | 0.00 | 0.00 | 57 | 1013.4 |
| 20260904180532 | 98 | 259 | 3.0 | 7.0 | 0.00 | 0.00 | 0.00 | 60 | 1013.3 |
| 20260904180027 | 97 | 181 | 4.0 | 12.0 | 0.00 | 0.00 | 0.00 | 56 | 1013.3 |
| 20260904175520 | 97 | 265 | 3.0 | 14.0 | 0.00 | 0.00 | 0.00 | 60 | 1013.4 |
| 20260904175012 | 97 | 257 | 2.0 | 10.0 | 0.00 | 0.00 | 0.00 | 62 | 1013.3 |
| 20260904174727 | 97 | 303 | 3.0 | 9.0 | 0.00 | 0.00 | 0.00 | 60 | 1013.4 |
| 20260904174001 | 97 | 304 | 4.0 | 9.0 | 0.00 | 0.00 | 0.00 | 58 | 1013.4 |
| 20260904173720 | 97 | 320 | 3.0 | 8.0 | 0.00 | 0.00 | 0.00 | 61 | 1013.4 |
| 20260904172948 | 97 | 307 | 3.0 | 7.0 | 0.00 | 0.00 | 0.00 | 57 | 1013.5 |
| 20260904172441 | 97 | 301 | 4.0 | 9.0 | 0.00 | 0.00 | 0.00 | 57 | 1013.6 |
| 20260904172200 | 97 | 260 | 4.0 | 9.0 | 0.00 | 0.00 | 0.00 | 57 | 1013.5 |
| 20260904171430 | 97 | 259 | 3.0 | 9.0 | 0.00 | 0.00 | 0.00 | 63 | 1013.5 |
| 20260904170924 | 96 | 292 | 1.0 | 8.0 | 0.00 | 0.00 | 0.00 | 61 | 1013.6 |
| 20260904170638 | 96 | 251 | 3.0 | 8.0 | 0.00 | 0.00 | 0.00 | 63 | 1013.7 |
| 20260904170133 | 96 | 334 | 4.0 | 9.0 | 0.00 | 0.00 | 0.00 | 59 | 1013.6 |
| 20260904165405 | 96 | 309 | 4.0 | 8.0 | 0.00 | 0.00 | 0.00 | 64 | 1013.7 |
| 20260904164859 | 96 | 209 | 3.0 | 8.0 | 0.00 | 0.00 | 0.00 | 68 | 1013.9 |
| 20260904164352 | 96 | 266 | 2.0 | 7.0 | 0.00 | 0.00 | 0.00 | 68 | 1013.8 |
| 20260904164110 | 96 | 251 | 3.0 | 6.0 | 0.00 | 0.00 | 0.00 | 66 | 1013.8 |
| 20260904163341 | 96 | 291 | 2.0 | 6.0 | 0.00 | 0.00 | 0.00 | 67 | 1013.9 |
| 20260904162835 | 96 | 292 | 2.0 | 7.0 | 0.00 | 0.00 | 0.00 | 65 | 1014.0 |
| 20260904162329 | 96 | 205 | 3.0 | 8.0 | 0.00 | 0.00 | 0.00 | 69 | 1014.0 |
| 20260904161824 | 95 | 286 | 4.0 | 9.0 | 0.00 | 0.00 | 0.00 | 68 | 1014.1 |
| 20260904161317 | 95 | 201 | 4.0 | 9.0 | 0.00 | 0.00 | 0.00 | 66 | 1014.1 |
| 20260904160812 | 95 | 318 | 4.0 | 8.0 | 0.00 | 0.00 | 0.00 | 66 | 1014.1 |
| 20260904160304 | 95 | 199 | 3.0 | 8.0 | 0.00 | 0.00 | 0.00 | 67 | 1014.0 |
| 20260904155800 | 95 | 302 | 3.0 | 10.0 | 0.00 | 0.00 | 0.00 | 67 | 1014.1 |
| 20260904155253 | 95 | 261 | 3.0 | 10.0 | 0.00 | 0.00 | 0.00 | 68 | 1014.2 |
| 20260904154748 | 94 | 2 | 3.0 | 10.0 | 0.00 | 0.00 | 0.00 | 69 | 1014.2 |
| 20260904154501 | 94 | 258 | 2.0 | 10.0 | 0.00 | 0.00 | 0.00 | 71 | 1014.2 |
| 20260904153735 | 94 | 188 | 2.0 | 4.0 | 0.00 | 0.00 | 0.00 | 75 | 1014.2 |
| 20260904153230 | 93 | 211 | 2.0 | 4.0 | 0.00 | 0.00 | 0.00 | 73 | 1014.2 |
| 20260904152950 | 93 | 317 | 2.0 | 7.0 | 0.00 | 0.00 | 0.00 | 73 | 1014.2 |
| 20260904152218 | 93 | 248 | 3.0 | 7.0 | 0.00 | 0.00 | 0.00 | 73 | 1014.2 |
| 20260904151713 | 92 | 272 | 3.0 | 8.0 | 0.00 | 0.00 | 0.00 | 74 | 1014.2 |
| 20260904151211 | 92 | 251 | 2.0 | 8.0 | 0.00 | 0.00 | 0.00 | 72 | 1014.2 |
| 20260904150713 | 92 | 200 | 2.0 | 9.0 | 0.00 | 0.00 | 0.00 | 73 | 1014.2 |
| 20260904150212 | 91 | 181 | 3.0 | 9.0 | 0.00 | 0.00 | 0.00 | 73 | 1014.2 |
| 20260904145711 | 91 | 296 | 4.0 | 8.0 | 0.00 | 0.00 | 0.00 | 74 | 1014.3 |
| 20260904145210 | 91 | 274 | 4.0 | 9.0 | 0.00 | 0.00 | 0.00 | 74 | 1014.3 |
| 20260904144710 | 91 | 263 | 3.0 | 9.0 | 0.00 | 0.00 | 0.00 | 74 | 1014.3 |
| 20260904144210 | 91 | 280 | 2.0 | 7.0 | 0.00 | 0.00 | 0.00 | 74 | 1014.2 |
| 20260904143711 | 90 | 201 | 2.0 | 9.0 | 0.00 | 0.00 | 0.00 | 74 | 1014.2 |
| 20260904143431 | 90 | 259 | 3.0 | 9.0 | 0.00 | 0.00 | 0.00 | 74 | 1014.2 |
| 20260904142712 | 90 | 274 | 2.0 | 6.0 | 0.00 | 0.00 | 0.00 | 76 | 1014.2 |
| 20260904142210 | 89 | 168 | 3.0 | 7.0 | 0.00 | 0.00 | 0.00 | 77 | 1014.1 |
| 20260904141932 | 89 | 261 | 3.0 | 8.0 | 0.00 | 0.00 | 0.00 | 75 | 1014.1 |
| 20260904141211 | 89 | 250 | 2.0 | 8.0 | 0.00 | 0.00 | 0.00 | 74 | 1014.1 |
| 20260904140208 | 89 | 256 | 2.0 | 8.0 | 0.00 | 0.00 | 0.00 | 78 | 1014.1 |
| 20260904140156 | 88 | 199 | 2.0 | 7.0 | 0.00 | 0.00 | 0.00 | 78 | 1014.0 |
| 20260904135151 | 88 | 255 | 2.0 | 9.0 | 0.00 | 0.00 | 0.00 | 78 | 1014.0 |
| 20260904134646 | 87 | 195 | 2.0 | 9.0 | 0.00 | 0.00 | 0.00 | 78 | 1014.0 |
| 20260904134139 | 87 | 199 | 2.0 | 9.0 | 0.00 | 0.00 | 0.00 | 78 | 1014.0 |
| 20260904133634 | 87 | 238 | 3.0 | 10.0 | 0.00 | 0.00 | 0.00 | 77 | 1014.1 |
| 20260904133127 | 87 | 220 | 3.0 | 10.0 | 0.00 | 0.00 | 0.00 | 78 | 1014.2 |
| 20260904132622 | 86 | 205 | 2.0 | 8.0 | 0.00 | 0.00 | 0.00 | 79 | 1014.2 |
| 20260904132117 | 86 | 244 | 2.0 | 8.0 | 0.00 | 0.00 | 0.00 | 79 | 1014.1 |
| 20260904131609 | 85 | 220 | 2.0 | 10.0 | 0.00 | 0.00 | 0.00 | 80 | 1014.2 |
| 20260904131103 | 85 | 185 | 2.0 | 10.0 | 0.00 | 0.00 | 0.00 | 79 | 1014.2 |
| 20260904130558 | 85 | 222 | 2.0 | 6.0 | 0.00 | 0.00 | 0.00 | 81 | 1014.3 |
| 20260904130103 | 85 | 243 | 2.0 | 6.0 | 0.00 | 0.00 | 0.00 | 81 | 1014.3 |
| 20260904125545 | 84 | 228 | 2.0 | 6.0 | 0.00 | 0.00 | 0.00 | 81 | 1014.4 |
| 20260904125259 | 84 | 206 | 2.0 | 6.0 | 0.00 | 0.00 | 0.00 | 81 | 1014.4 |
| 20260904124534 | 83 | 250 | 2.0 | 6.0 | 0.00 | 0.00 | 0.00 | 82 | 1014.5 |
| 20260904124028 | 83 | 234 | 3.0 | 7.0 | 0.00 | 0.00 | 0.00 | 82 | 1014.5 |
| 20260904123522 | 83 | 270 | 2.0 | 7.0 | 0.00 | 0.00 | 0.00 | 82 | 1014.5 |
| 20260904123016 | 82 | 206 | 1.0 | 4.0 | 0.00 | 0.00 | 0.00 | 84 | 1014.6 |
| 20260904122727 | 82 | 185 | 1.0 | 3.0 | 0.00 | 0.00 | 0.00 | 84 | 1014.5 |
| 20260904122002 | 81 | 202 | 1.0 | 4.0 | 0.00 | 0.00 | 0.00 | 85 | 1014.4 |
| 20260904121457 | 81 | 201 | 1.0 | 4.0 | 0.00 | 0.00 | 0.00 | 86 | 1014.5 |
| 20260904120951 | 80 | 213 | 1.0 | 5.0 | 0.00 | 0.00 | 0.00 | 87 | 1014.5 |
| 20260904120445 | 80 | 320 | 1.0 | 5.0 | 0.00 | 0.00 | 0.00 | 88 | 1014.4 |
| 20260904115940 | 79 | 222 | 1.0 | 4.0 | 0.00 | 0.00 | 0.00 | 89 | 1014.4 |
| 20260904115434 | 79 | 273 | 2.0 | 4.0 | 0.00 | 0.00 | 0.00 | 89 | 1014.4 |
| 20260904114927 | 78 | 220 | 2.0 | 5.0 | 0.00 | 0.00 | 0.00 | 90 | 1014.3 |
| 20260904114420 | 78 | 199 | 1.0 | 4.0 | 0.00 | 0.00 | 0.00 | 90 | 1014.5 |
| 20260904113928 | 78 | 214 | 1.0 | 3.0 | 0.00 | 0.00 | 0.00 | 90 | 1014.5 |
| 20260904113631 | 78 | 205 | 1.0 | 4.0 | 0.00 | 0.00 | 0.00 | 90 | 1014.6 |
| 20260904112908 | 77 | 203 | 1.0 | 4.0 | 0.00 | 0.00 | 0.00 | 90 | 1014.5 |
| 20260904112407 | 77 | 193 | 1.0 | 4.0 | 0.00 | 0.00 | 0.00 | 90 | 1014.5 |
| 20260904111910 | 77 | 219 | 1.0 | 3.0 | 0.00 | 0.00 | 0.00 | 90 | 1014.5 |
| 20260904111408 | 77 | 223 | 1.0 | 3.0 | 0.00 | 0.00 | 0.00 | 90 | 1014.6 |
| 20260904110908 | 77 | 254 | 1.0 | 3.0 | 0.00 | 0.00 | 0.00 | 90 | 1014.5 |
| 20260904110408 | 77 | 261 | 1.0 | 2.0 | 0.00 | 0.00 | 0.00 | 90 | 1014.4 |
| 20260904110130 | 77 | 262 | 1.0 | 2.0 | 0.00 | 0.00 | 0.00 | 90 | 1014.5 |
| 20260904105407 | 77 | 261 | 1.0 | 2.0 | 0.00 | 0.00 | 0.00 | 89 | 1014.4 |
| 20260904104906 | 77 | 10 | 1.0 | 3.0 | 0.00 | 0.00 | 0.00 | 89 | 1014.4 |
| 20260904104407 | 77 | 9 | 0.0 | 3.0 | 0.00 | 0.00 | 0.00 | 89 | 1014.4 |
| 20260904103906 | 77 | 9 | 0.0 | 1.0 | 0.00 | 0.00 | 0.00 | 89 | 1014.4 |
| 20260904103408 | 77 | 9 | 0.0 | 0.0 | 0.00 | 0.00 | 0.00 | 89 | 1014.4 |
| 20260904102904 | 77 | 9 | 0.0 | 0.0 | 0.00 | 0.00 | 0.00 | 89 | 1014.4 |
| 20260904102403 | 77 | 9 | 0.0 | 1.0 | 0.00 | 0.00 | 0.00 | 89 | 1014.4 |
| 20260904102131 | 77 | 9 | 0.0 | 2.0 | 0.00 | 0.00 | 0.00 | 89 | 1014.4 |
| 20260904101403 | 77 | 9 | 0.0 | 2.0 | 0.00 | 0.00 | 0.00 | 88 | 1014.5 |
| 20260904100902 | 77 | 9 | 0.0 | 1.0 | 0.00 | 0.00 | 0.00 | 88 | 1014.6 |
| 20260904100402 | 77 | 10 | 0.0 | 1.0 | 0.00 | 0.00 | 0.00 | 88 | 1014.6 |
| 20260904095903 | 78 | 9 | 0.0 | 0.0 | 0.00 | 0.00 | 0.00 | 88 | 1014.7 |
| 20260904095404 | 78 | 9 | 0.0 | 0.0 | 0.00 | 0.00 | 0.00 | 88 | 1014.5 |
| 20260904095211 | 78 | 9 | 0.0 | 0.0 | 0.00 | 0.00 | 0.00 | 88 | 1014.6 |
| 20260904095057 | 78 | 9 | 0.0 | 0.0 | 0.00 | 0.00 | 0.00 | 88 | 1014.6 |
| 20260904093902 | 78 | 9 | 0.0 | 0.0 | 0.00 | 0.00 | 0.00 | 88 | 1014.6 |
| 20260904093403 | 78 | 10 | 0.0 | 0.0 | 0.00 | 0.00 | 0.00 | 88 | 1014.8 |
| 20260904092903 | 78 | 9 | 0.0 | 0.0 | 0.00 | 0.00 | 0.00 | 87 | 1014.8 |
| 20260904092402 | 78 | 10 | 0.0 | 0.0 | 0.00 | 0.00 | 0.00 | 87 | 1014.7 |
| 20260904091903 | 78 | 9 | 0.0 | 0.0 | 0.00 | 0.00 | 0.00 | 87 | 1014.7 |
| 20260904091402 | 79 | 9 | 0.0 | 0.0 | 0.00 | 0.00 | 0.00 | 87 | 1014.8 |
| 20260904091121 | 79 | 9 | 0.0 | 0.0 | 0.00 | 0.00 | 0.00 | 86 | 1014.7 |
| 20260904090400 | 79 | 9 | 1.0 | 3.0 | 0.00 | 0.00 | 0.00 | 86 | 1014.8 |
| 20260904085854 | 79 | 9 | 1.0 | 3.0 | 0.00 | 0.00 | 0.00 | 86 | 1014.8 |
| 20260904085349 | 79 | 9 | 1.0 | 2.0 | 0.00 | 0.00 | 0.00 | 86 | 1014.8 |
| 20260904084843 | 79 | 9 | 1.0 | 2.0 | 0.00 | 0.00 | 0.00 | 86 | 1015.0 |
| 20260904084336 | 79 | 6 | 1.0 | 2.0 | 0.00 | 0.00 | 0.00 | 85 | 1014.9 |
| 20260904083829 | 79 | 6 | 1.0 | 5.0 | 0.00 | 0.00 | 0.00 | 86 | 1015.1 |
| 20260904083323 | 79 | 3 | 1.0 | 5.0 | 0.00 | 0.00 | 0.00 | 86 | 1015.2 |
| 20260904082821 | 79 | 322 | 1.0 | 2.0 | 0.00 | 0.00 | 0.00 | 86 | 1015.0 |
| 20260904082313 | 79 | 321 | 1.0 | 4.0 | 0.00 | 0.00 | 0.00 | 86 | 1014.6 |
| 20260904081806 | 80 | 324 | 2.0 | 5.0 | 0.00 | 0.00 | 0.00 | 86 | 1014.6 |
| 20260904081301 | 79 | 9 | 1.0 | 5.0 | 0.00 | 0.00 | 0.00 | 86 | 1014.4 |
| 20260904080755 | 80 | 242 | 1.0 | 4.0 | 0.00 | 0.00 | 0.00 | 86 | 1013.9 |
| 20260904080518 | 80 | 242 | 1.0 | 5.0 | 0.00 | 0.00 | 0.00 | 86 | 1013.9 |
| 20260904075742 | 80 | 170 | 2.0 | 5.0 | 0.00 | 0.00 | 0.00 | 86 | 1013.9 |
| 20260904075235 | 80 | 190 | 2.0 | 4.0 | 0.00 | 0.00 | 0.00 | 86 | 1014.2 |
| 20260904075209 | 79 | 244 | 2.0 | 4.0 | 0.00 | 0.00 | 0.00 | 86 | 1014.6 |
| 20260904074225 | 79 | 182 | 2.0 | 7.0 | 0.00 | 0.00 | 0.00 | 87 | 1014.1 |
| 20260904073718 | 79 | 160 | 3.0 | 7.0 | 0.00 | 0.00 | 0.00 | 87 | 1014.1 |
| 20260904073212 | 79 | 355 | 1.0 | 6.0 | 0.00 | 0.00 | 0.00 | 87 | 1014.9 |
| 20260904072706 | 79 | 322 | 0.0 | 4.0 | 0.00 | 0.00 | 0.00 | 87 | 1014.0 |
| 20260904072159 | 79 | 222 | 0.0 | 2.0 | 0.00 | 0.00 | 0.00 | 87 | 1013.8 |
| 20260904071654 | 79 | 222 | 0.0 | 2.0 | 0.00 | 0.00 | 0.00 | 87 | 1013.6 |
| 20260904071149 | 79 | 223 | 1.0 | 3.0 | 0.00 | 0.00 | 0.00 | 87 | 1013.6 |
| 20260904070642 | 79 | 222 | 1.0 | 3.0 | 0.00 | 0.00 | 0.00 | 87 | 1013.6 |
| 20260904070148 | 79 | 217 | 1.0 | 3.0 | 0.00 | 0.00 | 0.00 | 87 | 1013.5 |
| 20260904065848 | 79 | 224 | 1.0 | 3.0 | 0.00 | 0.00 | 0.00 | 87 | 1013.5 |
| 20260904065124 | 79 | 209 | 1.0 | 4.0 | 0.00 | 0.00 | 0.00 | 87 | 1013.5 |
| 20260904064618 | 79 | 208 | 1.0 | 4.0 | 0.00 | 0.00 | 0.00 | 87 | 1013.5 |
| 20260904064111 | 79 | 214 | 1.0 | 5.0 | 0.00 | 0.00 | 0.00 | 87 | 1013.7 |
| 20260904063607 | 79 | 214 | 1.0 | 5.0 | 0.00 | 0.00 | 0.00 | 87 | 1013.7 |
| 20260904063258 | 79 | 230 | 1.0 | 6.0 | 0.00 | 0.00 | 0.00 | 86 | 1014.0 |
| 20260904063143 | 79 | 229 | 0.0 | 2.0 | 0.00 | 0.00 | 0.00 | 87 | 1013.9 |
| 20260904062047 | 80 | 230 | 1.0 | 6.0 | 0.00 | 0.00 | 0.00 | 87 | 1014.0 |
| 20260904061541 | 80 | 197 | 1.0 | 4.0 | 0.00 | 0.00 | 0.00 | 86 | 1014.0 |
| 20260904061036 | 80 | 271 | 1.0 | 4.0 | 0.00 | 0.00 | 0.00 | 86 | 1014.0 |
| 20260904060749 | 80 | 215 | 2.0 | 5.0 | 0.00 | 0.00 | 0.00 | 86 | 1014.1 |
| 20260904060024 | 80 | 240 | 2.0 | 5.0 | 0.00 | 0.00 | 0.00 | 86 | 1014.2 |
| 20260904055519 | 80 | 201 | 1.0 | 4.0 | 0.00 | 0.00 | 0.00 | 86 | 1014.2 |
| 20260904055012 | 80 | 226 | 2.0 | 6.0 | 0.00 | 0.00 | 0.00 | 86 | 1014.2 |
| 20260904054505 | 80 | 215 | 2.0 | 6.0 | 0.00 | 0.00 | 0.00 | 87 | 1014.2 |
| 20260904054001 | 80 | 273 | 2.0 | 5.0 | 0.00 | 0.00 | 0.00 | 87 | 1014.3 |
| 20260904053454 | 80 | 264 | 2.0 | 4.0 | 0.00 | 0.00 | 0.00 | 87 | 1014.2 |
| 20260904052948 | 80 | 173 | 2.0 | 4.0 | 0.00 | 0.00 | 0.00 | 87 | 1014.4 |
| 20260904052638 | 80 | 207 | 1.0 | 3.0 | 0.00 | 0.00 | 0.00 | 87 | 1014.7 |
| 20260904052523 | 80 | 226 | 1.0 | 4.0 | 0.00 | 0.00 | 0.00 | 87 | 1014.6 |
| 20260904051652 | 80 | 183 | 1.0 | 6.0 | 0.00 | 0.00 | 0.00 | 87 | 1014.8 |
| 20260904050925 | 80 | 282 | 1.0 | 6.0 | 0.00 | 0.00 | 0.00 | 87 | 1014.9 |
| 20260904050417 | 80 | 219 | 1.0 | 2.0 | 0.00 | 0.00 | 0.00 | 87 | 1014.9 |
| 20260904045911 | 80 | 226 | 2.0 | 7.0 | 0.00 | 0.00 | 0.00 | 87 | 1014.9 |
| 20260904045407 | 80 | 226 | 2.0 | 7.0 | 0.00 | 0.00 | 0.00 | 88 | 1014.9 |
| 20260904044908 | 80 | 205 | 2.0 | 8.0 | 0.00 | 0.00 | 0.00 | 88 | 1015.0 |
| 20260904044406 | 80 | 247 | 2.0 | 8.0 | 0.00 | 0.00 | 0.00 | 88 | 1014.9 |
| 20260904043906 | 80 | 213 | 2.0 | 5.0 | 0.00 | 0.00 | 0.00 | 88 | 1014.9 |
| 20260904043406 | 80 | 207 | 2.0 | 5.0 | 0.00 | 0.00 | 0.00 | 89 | 1014.8 |
| 20260904042902 | 80 | 206 | 1.0 | 4.0 | 0.00 | 0.00 | 0.00 | 89 | 1014.8 |
| 20260904042400 | 80 | 211 | 1.0 | 3.0 | 0.00 | 0.00 | 0.00 | 89 | 1014.9 |
| 20260904041901 | 80 | 201 | 1.0 | 3.0 | 0.00 | 0.00 | 0.00 | 89 | 1014.9 |
| 20260904041403 | 80 | 199 | 1.0 | 3.0 | 0.00 | 0.00 | 0.00 | 89 | 1014.9 |
| 20260904040858 | 80 | 256 | 1.0 | 6.0 | 0.00 | 0.00 | 0.00 | 89 | 1014.8 |
| 20260904040358 | 80 | 172 | 1.0 | 6.0 | 0.00 | 0.00 | 0.00 | 89 | 1014.9 |
| 20260904040116 | 80 | 207 | 1.0 | 6.0 | 0.00 | 0.00 | 0.00 | 89 | 1014.9 |
| 20260904035358 | 80 | 194 | 1.0 | 6.0 | 0.00 | 0.00 | 0.00 | 89 | 1014.9 |
| 20260904034858 | 80 | 203 | 1.0 | 4.0 | 0.00 | 0.00 | 0.00 | 89 | 1015.0 |
| 20260904034358 | 80 | 203 | 1.0 | 4.0 | 0.00 | 0.00 | 0.00 | 89 | 1014.8 |
| 20260904033859 | 80 | 213 | 1.0 | 2.0 | 0.00 | 0.00 | 0.00 | 89 | 1014.8 |
| 20260904033545 | 80 | 218 | 1.0 | 4.0 | 0.00 | 0.00 | 0.00 | 89 | 1014.8 |
| 20260904033438 | 80 | 206 | 1.0 | 4.0 | 0.00 | 0.00 | 0.00 | 89 | 1014.9 |
| 20260904032337 | 80 | 215 | 1.0 | 2.0 | 0.00 | 0.00 | 0.00 | 89 | 1014.9 |
| 20260904031837 | 80 | 214 | 1.0 | 2.0 | 0.00 | 0.00 | 0.00 | 89 | 1014.8 |
| 20260904031334 | 81 | 183 | 0.0 | 2.0 | 0.00 | 0.00 | 0.00 | 89 | 1014.7 |
| 20260904030833 | 81 | 183 | 0.0 | 2.0 | 0.00 | 0.00 | 0.00 | 89 | 1014.8 |
| 20260904030552 | 81 | 272 | 0.0 | 2.0 | 0.00 | 0.00 | 0.00 | 89 | 1014.9 |
| 20260904025823 | 81 | 190 | 0.0 | 2.0 | 0.00 | 0.00 | 0.00 | 89 | 1014.8 |
| 20260904025316 | 81 | 181 | 0.0 | 1.0 | 0.00 | 0.00 | 0.00 | 89 | 1014.8 |
| 20260904024811 | 81 | 180 | 0.0 | 2.0 | 0.00 | 0.00 | 0.00 | 89 | 1014.8 |
| 20260904024304 | 81 | 180 | 0.0 | 2.0 | 0.00 | 0.00 | 0.00 | 89 | 1014.8 |
| 20260904024018 | 81 | 27 | 0.0 | 1.0 | 0.00 | 0.00 | 0.00 | 89 | 1015.0 |
| 20260904023449 | 81 | 27 | 0.0 | 1.0 | 0.00 | 0.00 | 0.00 | 89 | 1015.0 |
| 20260904023338 | 81 | 28 | 0.0 | 1.0 | 0.00 | 0.00 | 0.00 | 88 | 1015.0 |
| 20260904022500 | 81 | 27 | 0.0 | 2.0 | 0.00 | 0.00 | 0.00 | 88 | 1015.1 |
| 20260904021734 | 81 | 28 | 0.0 | 2.0 | 0.00 | 0.00 | 0.00 | 88 | 1015.1 |
| 20260904021229 | 81 | 26 | 0.0 | 1.0 | 0.00 | 0.00 | 0.00 | 88 | 1015.1 |
| 20260904020721 | 81 | 26 | 0.0 | 1.0 | 0.00 | 0.00 | 0.00 | 88 | 1015.2 |
| 20260904020215 | 81 | 26 | 0.0 | 1.0 | 0.00 | 0.00 | 0.00 | 88 | 1015.3 |
| 20260904015710 | 82 | 27 | 0.0 | 1.0 | 0.00 | 0.00 | 0.00 | 88 | 1015.2 |
| 20260904015204 | 82 | 26 | 0.0 | 1.0 | 0.00 | 0.00 | 0.00 | 88 | 1015.2 |
| 20260904014658 | 82 | 27 | 0.0 | 0.0 | 0.00 | 0.00 | 0.00 | 88 | 1015.3 |
| 20260904014151 | 82 | 26 | 0.0 | 0.0 | 0.00 | 0.00 | 0.00 | 88 | 1015.5 |
| 20260904013647 | 82 | 26 | 0.0 | 1.0 | 0.00 | 0.00 | 0.00 | 88 | 1015.5 |
| 20260904013408 | 82 | 26 | 0.0 | 1.0 | 0.00 | 0.00 | 0.00 | 87 | 1015.5 |
| 20260904012635 | 82 | 26 | 0.0 | 1.0 | 0.00 | 0.00 | 0.00 | 87 | 1015.6 |
| 20260904012128 | 82 | 26 | 0.0 | 1.0 | 0.00 | 0.00 | 0.00 | 87 | 1015.6 |
| 20260904011623 | 82 | 26 | 0.0 | 1.0 | 0.00 | 0.00 | 0.00 | 86 | 1015.6 |
| 20260904011116 | 83 | 26 | 0.0 | 1.0 | 0.00 | 0.00 | 0.00 | 86 | 1015.6 |
| 20260904010610 | 83 | 26 | 0.0 | 1.0 | 0.00 | 0.00 | 0.00 | 86 | 1015.4 |
| 20260904010117 | 83 | 26 | 0.0 | 0.0 | 0.00 | 0.00 | 0.00 | 86 | 1015.4 |
| 20260904005557 | 83 | 26 | 0.0 | 0.0 | 0.00 | 0.00 | 0.00 | 85 | 1015.4 |
| 20260904005052 | 83 | 26 | 0.0 | 0.0 | 0.00 | 0.00 | 0.00 | 85 | 1015.3 |
| 20260904004547 | 83 | 24 | 0.0 | 0.0 | 0.00 | 0.00 | 0.00 | 85 | 1015.1 |
| 20260904004041 | 84 | 26 | 0.0 | 1.0 | 0.00 | 0.00 | 0.00 | 85 | 1015.2 |
| 20260904003533 | 84 | 26 | 0.0 | 1.0 | 0.00 | 0.00 | 0.00 | 85 | 1015.2 |
| 20260904003254 | 84 | 26 | 0.0 | 1.0 | 0.00 | 0.00 | 0.00 | 85 | 1015.0 |
| 20260904002521 | 84 | 26 | 0.0 | 0.0 | 0.00 | 0.00 | 0.00 | 84 | 1015.0 |
| 20260904002232 | 84 | 26 | 0.0 | 0.0 | 0.00 | 0.00 | 0.00 | 84 | 1015.0 |
| 20260904001509 | 84 | 26 | 0.0 | 1.0 | 0.00 | 0.00 | 0.00 | 84 | 1014.8 |
| 20260904001006 | 85 | 26 | 0.0 | 1.0 | 0.00 | 0.00 | 0.00 | 84 | 1014.6 |
| 20260904000458 | 85 | 26 | 0.0 | 0.0 | 0.00 | 0.00 | 0.00 | 84 | 1014.6 |
| 20260903235952 | 85 | 26 | 0.0 | 0.0 | 0.00 | 0.00 | 0.00 | 83 | 1014.5 |
| 20260903235710 | 85 | 26 | 0.0 | 0.0 | 0.00 | 0.00 | 0.00 | 83 | 1014.4 |
| 20260903235202 | 85 | 26 | 0.0 | 0.0 | 0.00 | 0.00 | 0.00 | 83 | 1014.3 |